GW4489 Weather Reports


Display with metric or nautical units.
time (UTC)temp
F
wind
direction
speed
MPH
gust
MPH
rain 1hr
in
rain 24hr
in
rain mn
in
humidity
%
barometer
mb
20260903023503 77 273 0.0 0.0 0.00 0.00 0.00 83 1018.7
20260903023006 77 273 0.0 0.0 0.00 0.00 0.00 83 1018.7
20260903022502 77 273 0.0 0.0 0.00 0.00 0.00 83 1018.8
20260903022006 77 273 0.0 0.0 0.00 0.00 0.00 82 1018.9
20260903021517 78 273 0.0 0.0 0.00 0.00 0.00 82 1018.8
20260903021006 78 273 0.0 0.0 0.00 0.00 0.00 81 1018.7
20260903020508 78 273 0.0 0.0 0.00 0.00 0.00 81 1018.7
20260903020033 78 273 0.0 2.0 0.00 0.00 0.00 81 1018.7
20260903015509 78 273 0.0 3.0 0.00 0.00 0.00 80 1018.7
20260903015011 79 273 1.0 3.0 0.00 0.00 0.00 80 1018.7
20260903014523 79 273 0.0 1.0 0.00 0.00 0.00 79 1018.7
20260903014011 79 273 0.0 1.0 0.00 0.00 0.00 79 1018.7
20260903013514 79 273 0.0 0.0 0.00 0.00 0.00 78 1018.6
20260903013027 79 273 0.0 0.0 0.00 0.00 0.00 78 1018.6
20260903012502 80 273 0.0 1.0 0.00 0.00 0.00 78 1018.6
20260903012008 80 273 0.0 1.0 0.00 0.00 0.00 77 1018.4
20260903011510 80 273 0.0 2.0 0.00 0.00 0.00 77 1018.2
20260903011006 81 273 0.0 3.0 0.00 0.00 0.00 76 1018.2
20260903010506 81 273 1.0 3.0 0.00 0.00 0.00 76 1018.3
20260903010017 81 273 0.0 2.0 0.00 0.00 0.00 74 1018.2
20260903005506 82 273 0.0 1.0 0.00 0.00 0.00 73 1018.2
20260903005010 82 273 0.0 1.0 0.00 0.00 0.00 73 1018.2
20260903004523 83 273 0.0 2.0 0.00 0.00 0.00 72 1018.2
20260903004010 83 273 0.0 2.0 0.00 0.00 0.00 71 1018.1
20260903003513 84 273 0.0 2.0 0.00 0.00 0.00 70 1018.1
20260903003026 84 273 0.0 0.0 0.00 0.00 0.00 69 1018.1
20260903002512 85 273 0.0 0.0 0.00 0.00 0.00 69 1018.1
20260903002014 85 273 0.0 0.0 0.00 0.00 0.00 69 1018.2
20260903001525 86 273 0.0 1.0 0.00 0.00 0.00 67 1018.2
20260903001017 86 273 0.0 1.0 0.00 0.00 0.00 64 1018.1
20260903000506 87 273 0.0 0.0 0.00 0.00 0.00 63 1018.1
20260903000012 88 273 0.0 0.0 0.00 0.00 0.00 62 1018.2
20260902235506 88 273 0.0 0.0 0.00 0.00 0.00 61 1018.2
20260902235010 89 273 0.0 0.0 0.00 0.00 0.00 60 1018.2
20260902234520 90 273 0.0 1.0 0.00 0.00 0.00 59 1018.2
20260902234010 91 273 0.0 1.0 0.00 0.00 0.00 59 1018.0
20260902233511 91 252 0.0 1.0 0.00 0.00 0.00 57 1018.0
20260902233030 91 251 0.0 2.0 0.00 0.00 0.00 57 1018.0
20260902232510 92 219 1.0 2.0 0.00 0.00 0.00 55 1018.0
20260902232015 92 219 0.0 2.0 0.00 0.00 0.00 53 1018.0
20260902231541 92 219 0.0 1.0 0.00 0.00 0.00 53 1017.9
20260902231017 93 219 0.0 1.0 0.00 0.00 0.00 55 1018.0
20260902230515 93 219 0.0 2.0 0.00 0.00 0.00 52 1018.0
20260902230031 93 219 0.0 2.0 0.00 0.00 0.00 50 1018.1
20260902225519 94 219 0.0 2.0 0.00 0.00 0.00 52 1018.1
20260902225006 94 219 1.0 2.0 0.00 0.00 0.00 48 1018.0
20260902224516 94 219 1.0 3.0 0.00 0.00 0.00 49 1018.0
20260902224009 95 219 1.0 3.0 0.00 0.00 0.00 48 1018.0
20260902223510 95 32 0.0 3.0 0.00 0.00 0.00 47 1018.1
20260902223034 95 284 0.0 3.0 0.00 0.00 0.00 49 1018.1
20260902222512 95 281 0.0 4.0 0.00 0.00 0.00 51 1018.1
20260902222016 95 281 0.0 4.0 0.00 0.00 0.00 51 1018.1
20260902221530 95 325 1.0 4.0 0.00 0.00 0.00 49 1018.2
20260902221013 95 325 2.0 4.0 0.00 0.00 0.00 50 1018.3
20260902220514 95 327 0.0 4.0 0.00 0.00 0.00 48 1018.3
20260902220007 95 221 1.0 4.0 0.00 0.00 0.00 48 1018.3
20260902215503 95 306 1.0 6.0 0.00 0.00 0.00 50 1018.3
20260902215008 95 229 1.0 8.0 0.00 0.00 0.00 51 1018.2
20260902214506 95 219 4.0 8.0 0.00 0.00 0.00 49 1018.2
20260902214002 95 263 1.0 6.0 0.00 0.00 0.00 51 1018.2
20260902213501 95 269 1.0 5.0 0.00 0.00 0.00 50 1018.2
20260902213002 95 343 2.0 8.0 0.00 0.00 0.00 47 1018.2
20260902212502 95 287 3.0 8.0 0.00 0.00 0.00 49 1018.2
20260902212002 96 280 1.0 8.0 0.00 0.00 0.00 48 1018.3
20260902211504 95 236 2.0 8.0 0.00 0.00 0.00 49 1018.3
20260902211003 95 355 5.0 8.0 0.00 0.00 0.00 47 1018.3
20260902210502 96 327 1.0 6.0 0.00 0.00 0.00 49 1018.3
20260902210004 96 38 2.0 5.0 0.00 0.00 0.00 47 1018.4
20260902205503 96 292 1.0 4.0 0.00 0.00 0.00 50 1018.4
20260902205005 95 346 2.0 6.0 0.00 0.00 0.00 47 1018.4
20260902204509 95 254 0.0 6.0 0.00 0.00 0.00 47 1018.4
20260902204003 96 327 2.0 6.0 0.00 0.00 0.00 47 1018.5
20260902203506 96 26 3.0 6.0 0.00 0.00 0.00 48 1018.6
20260902203015 96 328 2.0 8.0 0.00 0.00 0.00 48 1018.6
20260902202502 96 309 2.0 8.0 0.00 0.00 0.00 50 1018.7
20260902202002 95 5 2.0 5.0 0.00 0.00 0.00 49 1018.8
20260902201503 95 259 1.0 4.0 0.00 0.00 0.00 50 1018.8
20260902201004 95 322 1.0 5.0 0.00 0.00 0.00 51 1018.9
20260902200505 94 192 2.0 5.0 0.00 0.00 0.00 51 1019.0
20260902200006 95 150 1.0 8.0 0.00 0.00 0.00 49 1019.1
20260902195504 94 11 0.0 8.0 0.00 0.00 0.00 56 1019.1
20260902195003 95 348 4.0 8.0 0.00 0.00 0.00 50 1019.1
20260902194522 94 255 0.0 3.0 0.00 0.00 0.00 57 1019.2
20260902194002 92 274 0.0 2.0 0.00 0.00 0.00 56 1019.3
20260902193504 92 243 0.0 2.0 0.00 0.00 0.00 54 1019.4
20260902193012 92 243 0.0 4.0 0.00 0.00 0.00 55 1019.5
20260902192504 93 243 2.0 4.0 0.00 0.00 0.00 53 1019.5
20260902192006 95 24 2.0 4.0 0.00 0.00 0.00 56 1019.6
20260902191516 94 315 1.0 4.0 0.00 0.00 0.00 51 1019.7
20260902191010 92 34 0.0 4.0 0.00 0.00 0.00 55 1019.9
20260902190502 92 34 0.0 5.0 0.00 0.00 0.00 56 1019.8
20260902190005 92 36 2.0 5.0 0.00 0.00 0.00 53 1019.8
20260902185503 93 78 1.0 5.0 0.00 0.00 0.00 53 1019.9
20260902185002 94 11 4.0 6.0 0.00 0.00 0.00 50 1019.9
20260902184504 94 27 2.0 7.0 0.00 0.00 0.00 52 1020.0
20260902184003 95 202 2.0 7.0 0.00 0.00 0.00 54 1020.1
20260902183504 94 122 3.0 7.0 0.00 0.00 0.00 52 1020.1
20260902183010 94 32 2.0 7.0 0.00 0.00 0.00 56 1020.0
20260902182505 94 245 3.0 7.0 0.00 0.00 0.00 55 1020.0
20260902182004 94 293 3.0 7.0 0.00 0.00 0.00 52 1020.1
20260902181513 94 257 2.0 4.0 0.00 0.00 0.00 51 1020.2
20260902181008 94 242 2.0 5.0 0.00 0.00 0.00 54 1020.2
20260902180507 93 198 0.0 8.0 0.00 0.00 0.00 55 1020.2
20260902180023 93 220 5.0 8.0 0.00 0.00 0.00 53 1020.3
20260902175511 93 215 4.0 9.0 0.00 0.00 0.00 53 1020.4
20260902175012 92 230 5.0 9.0 0.00 0.00 0.00 56 1020.4
20260902174504 93 264 3.0 9.0 0.00 0.00 0.00 57 1020.4
20260902174004 93 294 3.0 6.0 0.00 0.00 0.00 53 1020.4
20260902173504 94 224 2.0 8.0 0.00 0.00 0.00 54 1020.4
20260902173007 93 159 1.0 8.0 0.00 0.00 0.00 56 1020.5
20260902172506 93 123 2.0 9.0 0.00 0.00 0.00 56 1020.6
20260902172003 93 198 3.0 9.0 0.00 0.00 0.00 55 1020.7
20260902171513 93 202 4.0 8.0 0.00 0.00 0.00 56 1020.7
20260902171008 93 277 1.0 8.0 0.00 0.00 0.00 57 1020.8
20260902170509 94 244 3.0 8.0 0.00 0.00 0.00 52 1020.8
20260902170020 93 27 3.0 7.0 0.00 0.00 0.00 52 1020.9
20260902165510 94 19 3.0 6.0 0.00 0.00 0.00 54 1021.0
20260902165016 93 311 2.0 4.0 0.00 0.00 0.00 57 1021.1
20260902164526 90 278 0.0 2.0 0.00 0.00 0.00 59 1021.4
20260902164013 90 326 0.0 3.0 0.00 0.00 0.00 62 1021.4
20260902163514 90 326 0.0 4.0 0.00 0.00 0.00 61 1021.4
20260902163027 91 326 1.0 8.0 0.00 0.00 0.00 59 1021.6
20260902162504 92 274 1.0 8.0 0.00 0.00 0.00 57 1021.6
20260902162004 92 233 3.0 7.0 0.00 0.00 0.00 56 1021.5
20260902161508 91 207 3.0 6.0 0.00 0.00 0.00 58 1021.6
20260902161004 92 176 2.0 7.0 0.00 0.00 0.00 55 1021.6
20260902160506 92 229 4.0 7.0 0.00 0.00 0.00 59 1021.7
20260902160016 92 236 2.0 4.0 0.00 0.00 0.00 55 1021.6
20260902155508 93 292 1.0 4.0 0.00 0.00 0.00 55 1021.6
20260902155006 91 176 0.0 6.0 0.00 0.00 0.00 57 1021.6
20260902154521 91 176 3.0 6.0 0.00 0.00 0.00 58 1021.6
20260902154008 92 220 2.0 6.0 0.00 0.00 0.00 57 1021.7
20260902153513 91 160 3.0 6.0 0.00 0.00 0.00 57 1021.7
20260902153026 91 199 1.0 3.0 0.00 0.00 0.00 59 1021.8
20260902152513 91 221 1.0 7.0 0.00 0.00 0.00 61 1021.8
20260902152014 90 221 2.0 7.0 0.00 0.00 0.00 59 1021.8
20260902151531 89 226 3.0 6.0 0.00 0.00 0.00 60 1021.8
20260902151005 90 218 2.0 6.0 0.00 0.00 0.00 60 1021.7
20260902150502 90 223 1.0 6.0 0.00 0.00 0.00 60 1021.7
20260902150010 89 228 0.0 4.0 0.00 0.00 0.00 62 1021.7
20260902145506 88 228 2.0 5.0 0.00 0.00 0.00 62 1021.7
20260902145008 88 228 1.0 5.0 0.00 0.00 0.00 63 1021.6
20260902144517 88 228 1.0 4.0 0.00 0.00 0.00 66 1021.7
20260902144009 87 228 0.0 4.0 0.00 0.00 0.00 66 1021.6
20260902143506 87 228 2.0 4.0 0.00 0.00 0.00 65 1021.6
20260902143023 88 228 1.0 4.0 0.00 0.00 0.00 68 1021.6
20260902142512 88 228 2.0 4.0 0.00 0.00 0.00 68 1021.5
20260902142012 88 228 1.0 3.0 0.00 0.00 0.00 66 1021.5
20260902141535 87 245 0.0 3.0 0.00 0.00 0.00 67 1021.5
20260902141015 87 290 1.0 2.0 0.00 0.00 0.00 68 1021.4
20260902140516 86 290 0.0 2.0 0.00 0.00 0.00 71 1021.5
20260902140030 85 95 0.0 2.0 0.00 0.00 0.00 71 1021.5
20260902135516 84 95 0.0 2.0 0.00 0.00 0.00 75 1021.5
20260902135004 83 140 0.0 0.0 0.00 0.00 0.00 80 1021.5
20260902134523 81 140 0.0 1.0 0.00 0.00 0.00 87 1021.4
20260902134007 79 140 0.0 1.0 0.00 0.00 0.00 91 1021.5
20260902133509 78 140 0.0 1.0 0.00 0.00 0.00 91 1021.5
20260902133020 77 140 0.0 1.0 0.00 0.00 0.00 93 1021.5
20260902132512 77 140 0.0 1.0 0.00 0.00 0.00 95 1021.6
20260902132011 76 140 0.0 0.0 0.00 0.00 0.00 95 1021.6
20260902131528 75 140 0.0 1.0 0.00 0.00 0.00 96 1021.6
20260902131012 74 32 0.0 1.0 0.00 0.00 0.00 96 1021.6
20260902130512 74 260 0.0 1.0 0.00 0.00 0.00 97 1021.6
20260902130004 73 249 0.0 2.0 0.00 0.00 0.00 97 1021.6
20260902125503 73 249 0.0 2.0 0.00 0.00 0.00 96 1021.6
20260902125006 72 249 1.0 2.0 0.00 0.00 0.00 96 1021.6
20260902124510 72 333 0.0 0.0 0.00 0.00 0.00 97 1021.6
20260902124005 72 258 0.0 0.0 0.00 0.00 0.00 97 1021.6
20260902123506 71 220 0.0 0.0 0.00 0.00 0.00 97 1021.5
20260902123021 71 220 0.0 0.0 0.00 0.00 0.00 96 1021.5
20260902122511 70 202 0.0 0.0 0.00 0.00 0.00 96 1021.5
20260902122010 70 202 0.0 0.0 0.00 0.00 0.00 96 1021.4
20260902121506 70 202 0.0 0.0 0.00 0.00 0.00 96 1021.3
20260902121003 69 203 0.0 0.0 0.00 0.00 0.00 95 1021.3
20260902120503 69 203 0.0 0.0 0.00 0.00 0.00 95 1021.1
20260902120004 69 203 0.0 0.0 0.00 0.00 0.00 95 1021.0
20260902115505 69 203 0.0 0.0 0.00 0.00 0.00 95 1021.0
20260902115003 69 203 0.0 0.0 0.00 0.00 0.00 95 1021.0
20260902114511 69 203 0.0 0.0 0.00 0.00 0.00 95 1020.9
20260902114006 69 203 0.0 0.0 0.00 0.00 0.00 95 1020.7
20260902113505 69 203 0.0 0.0 0.00 0.00 0.00 94 1020.6
20260902113012 69 203 0.0 0.0 0.00 0.00 0.00 94 1020.5
20260902112503 69 203 0.0 0.0 0.00 0.00 0.00 94 1020.5
20260902112008 69 203 0.0 0.0 0.00 0.00 0.00 94 1020.4
20260902111518 69 203 0.0 0.0 0.00 0.00 0.00 94 1020.3
20260902111011 69 203 0.0 0.0 0.00 0.00 0.00 94 1020.2
20260902110512 69 203 0.0 0.0 0.00 0.00 0.00 95 1020.2
20260902110031 69 203 0.0 0.0 0.00 0.00 0.00 94 1020.2
20260902105504 69 203 0.0 0.0 0.00 0.00 0.00 94 1020.1
20260902105003 69 203 0.0 0.0 0.00 0.00 0.00 94 1020.1
20260902104521 69 203 0.0 0.0 0.00 0.00 0.00 94 1020.1
20260902104004 69 203 0.0 0.0 0.00 0.00 0.00 94 1020.0
20260902103504 69 203 0.0 0.0 0.00 0.00 0.00 93 1019.9
20260902103012 69 203 0.0 0.0 0.00 0.00 0.00 93 1019.9
20260902102507 69 203 0.0 0.0 0.00 0.00 0.00 93 1019.9
20260902102003 69 203 0.0 0.0 0.00 0.00 0.00 93 1019.9
20260902101518 69 203 0.0 0.0 0.00 0.00 0.00 93 1019.9
20260902101007 70 203 0.0 0.0 0.00 0.00 0.00 93 1020.0
20260902100507 70 203 0.0 0.0 0.00 0.00 0.00 93 1020.0
20260902100024 70 203 0.0 0.0 0.00 0.00 0.00 93 1019.9
20260902095512 69 203 0.0 0.0 0.00 0.00 0.00 93 1020.0
20260902095013 70 203 0.0 0.0 0.00 0.00 0.00 93 1020.0
20260902094531 70 203 0.0 0.0 0.00 0.00 0.00 93 1020.1
20260902094003 70 203 0.0 0.0 0.00 0.00 0.00 93 1020.1
20260902093504 70 203 0.0 0.0 0.00 0.00 0.00 92 1020.0
20260902093009 70 203 0.0 0.0 0.00 0.00 0.00 92 1019.9
20260902092504 70 203 0.0 0.0 0.00 0.00 0.00 92 1020.0
20260902092002 70 203 0.0 0.0 0.00 0.00 0.00 92 1019.9
20260902091516 70 203 0.0 0.0 0.00 0.00 0.00 92 1019.9
20260902091008 70 203 0.0 0.0 0.00 0.00 0.00 92 1019.8
20260902090506 70 203 0.0 0.0 0.00 0.00 0.00 92 1019.8
20260902090022 70 203 0.0 0.0 0.00 0.00 0.00 92 1019.8
20260902085510 70 203 0.0 0.0 0.00 0.00 0.00 91 1019.8
20260902085011 70 203 0.0 0.0 0.00 0.00 0.00 91 1019.7
20260902084524 70 203 0.0 0.0 0.00 0.00 0.00 91 1019.7
20260902084020 70 203 0.0 0.0 0.00 0.00 0.00 91 1019.7
20260902083513 70 203 0.0 0.0 0.00 0.00 0.00 91 1019.7
20260902083031 70 203 0.0 0.0 0.00 0.00 0.00 91 1019.6
20260902082515 71 203 0.0 0.0 0.00 0.00 0.00 91 1019.5
20260902082002 71 203 0.0 0.0 0.00 0.00 0.00 91 1019.5
20260902081511 71 203 0.0 0.0 0.00 0.00 0.00 91 1019.5
20260902081004 71 203 0.0 0.0 0.00 0.00 0.00 91 1019.5
20260902080507 71 203 0.0 0.0 0.00 0.00 0.00 91 1019.4
20260902080021 71 203 0.0 0.0 0.00 0.00 0.00 91 1019.4
20260902075507 71 203 0.0 0.0 0.00 0.00 0.00 91 1019.5
20260902075008 71 203 0.0 1.0 0.00 0.00 0.00 91 1019.5
20260902074518 71 203 0.0 1.0 0.00 0.00 0.00 91 1019.5
20260902074010 71 203 0.0 1.0 0.00 0.00 0.00 90 1019.5
20260902073512 71 203 0.0 0.0 0.00 0.00 0.00 90 1019.4
20260902073026 71 203 0.0 0.0 0.00 0.00 0.00 90 1019.5
20260902072513 71 203 0.0 0.0 0.00 0.00 0.00 90 1019.5
20260902072017 71 203 0.0 0.0 0.00 0.00 0.00 90 1019.4
20260902071536 71 203 0.0 0.0 0.00 0.00 0.00 90 1019.4
20260902071017 71 203 0.0 0.0 0.00 0.00 0.00 90 1019.4
20260902070521 72 203 0.0 1.0 0.00 0.00 0.00 90 1019.5
20260902070014 72 203 0.0 2.0 0.00 0.00 0.00 90 1019.5
20260902065506 72 203 0.0 2.0 0.00 0.00 0.00 90 1019.5
20260902065008 72 203 0.0 2.0 0.00 0.00 0.00 90 1019.4
20260902064520 72 203 1.0 2.0 0.00 0.00 0.00 90 1019.5
20260902064013 72 203 0.0 1.0 0.00 0.00 0.00 90 1019.5
20260902063511 72 203 0.0 0.0 0.00 0.00 0.00 90 1019.6
20260902063024 72 203 0.0 0.0 0.00 0.00 0.00 90 1019.6
20260902062520 72 203 0.0 0.0 0.00 0.00 0.00 89 1019.6
20260902062014 72 203 0.0 1.0 0.00 0.00 0.00 89 1019.6
20260902061529 72 203 0.0 1.0 0.00 0.00 0.00 89 1019.6
20260902061003 72 203 0.0 0.0 0.00 0.00 0.00 89 1019.6
20260902060502 72 203 0.0 0.0 0.00 0.00 0.00 89 1019.6
20260902060009 72 203 0.0 0.0 0.00 0.00 0.00 89 1019.7
20260902055503 72 203 0.0 2.0 0.00 0.00 0.00 89 1019.7
20260902055003 72 203 0.0 2.0 0.00 0.00 0.00 88 1019.7
20260902054513 72 203 1.0 2.0 0.00 0.00 0.00 89 1019.7
20260902054008 72 203 1.0 2.0 0.00 0.00 0.00 89 1019.6
20260902053506 72 203 0.0 2.0 0.00 0.00 0.00 88 1019.6
20260902053024 72 203 0.0 0.0 0.00 0.00 0.00 88 1019.6
20260902052503 72 203 0.0 0.0 0.00 0.00 0.00 88 1019.6
20260902052002 73 203 0.0 0.0 0.00 0.00 0.00 88 1019.7
20260902051506 73 203 0.0 0.0 0.00 0.00 0.00 88 1019.7
20260902051004 73 203 0.0 0.0 0.00 0.00 0.00 87 1019.6
20260902050506 73 203 0.0 0.0 0.00 0.00 0.00 87 1019.7
20260902050009 73 203 0.0 0.0 0.00 0.00 0.00 87 1019.6
20260902045502 73 203 0.0 0.0 0.00 0.00 0.00 87 1019.5
20260902045005 73 203 0.0 0.0 0.00 0.00 0.00 87 1019.5
20260902044522 73 203 0.0 0.0 0.00 0.00 0.00 86 1019.6
20260902044006 74 203 0.0 0.0 0.00 0.00 0.00 86 1019.7
20260902043508 74 203 0.0 0.0 0.00 0.00 0.00 86 1019.6
20260902043017 74 203 0.0 0.0 0.00 0.00 0.00 86 1019.7
20260902042510 74 203 0.0 0.0 0.00 0.00 0.00 86 1019.7
20260902042010 74 203 0.0 0.0 0.00 0.00 0.00 85 1019.7
20260902041526 74 203 0.0 0.0 0.00 0.00 0.00 85 1019.7
20260902041016 74 203 0.0 0.0 0.00 0.00 0.00 86 1019.8
20260902040506 74 203 0.0 0.0 0.00 0.00 0.00 85 1019.8
20260902040007 74 203 0.0 0.0 0.00 0.00 0.00 85 1019.8
20260902035503 74 203 0.0 0.0 0.00 0.00 0.00 85 1019.8
20260902035003 74 203 0.0 0.0 0.00 0.00 0.00 85 1019.9
20260902034510 75 203 0.0 0.0 0.00 0.00 0.00 85 1020.0
20260902034003 75 203 0.0 0.0 0.00 0.00 0.00 85 1020.0
20260902033503 75 203 0.0 0.0 0.00 0.00 0.00 84 1019.9
20260902033014 75 203 0.0 0.0 0.00 0.00 0.00 84 1019.9
20260902032512 75 203 0.0 0.0 0.00 0.00 0.00 84 1019.9
20260902032011 75 203 0.0 0.0 0.00 0.00 0.00 85 1019.9
20260902031527 75 203 0.0 0.0 0.00 0.00 0.00 85 1019.9
20260902031011 75 203 0.0 1.0 0.00 0.00 0.00 85 1019.9
20260902030509 75 203 0.0 2.0 0.00 0.00 0.00 85 1019.9
20260902030027 75 203 0.0 2.0 0.00 0.00 0.00 84 1019.9
20260902025513 75 203 0.0 2.0 0.00 0.00 0.00 84 1019.9
20260902025003 76 203 0.0 2.0 0.00 0.00 0.00 84 1019.9
20260902024506 76 203 0.0 2.0 0.00 0.00 0.00 84 1020.0
20260902024003 76 203 0.0 0.0 0.00 0.00 0.00 84 1020.0